Stations météo

réclame
Mon MeteoGroup
Cap Bear, France (7749): Température de l'air & dewpoint: 19.02.2018 10:00:00 - 25.02.2018 10:00:00 (CET)Cap Bear, France (7749): Vitesse du vent & gusts: 19.02.2018 10:00:00 - 25.02.2018 10:00:00 (CET)Cap Bear, France (7749): Direction du vent: 19.02.2018 10:00:00 - 25.02.2018 10:00:00 (CET)Cap Bear, France (7749): reduced air pressure: 19.02.2018 10:00:00 - 25.02.2018 10:00:00 (CET)Cap Bear, France (7749): visibility: 19.02.2018 10:00:00 - 25.02.2018 10:00:00 (CET)Cap Bear, France (7749): Quantités de précipitations: 19.02.2018 10:00:00 - 25.02.2018 10:00:00 (CET)
Date & Time tt [°C] td [°C] ff [km/h] ff [knt] fx [km/h] fx [knt] dd ppp [hPa] vv [km] rr [mm]
25.02.2018 10:00:00 9,5 3,9 32 17 38 20 N 1009,6 18 0,0
25.02.2018 09:00:00 9,4 3,4 27 14 31 17 NNE 1009,6 - 0,0
25.02.2018 08:00:00 8,4 2,2 16 9 21 11 NNE 1009,0 - 0,0
25.02.2018 07:00:00 7,9 2,8 14 8 26 14 NNW 1008,8 10 0,0
25.02.2018 06:00:00 8,2 2,0 23 13 35 19 NNW 1008,6 - 0,0
25.02.2018 05:00:00 9,2 1,6 28 15 46 25 NW 1008,4 - 0,0
25.02.2018 04:00:00 9,2 -0,2 29 16 46 25 NW 1008,6 - 0,0
25.02.2018 03:00:00 8,7 1,8 35 19 48 26 NW 1009,1 - 0,0
25.02.2018 02:00:00 8,1 0,8 31 17 46 25 NW 1009,4 - 0,0
25.02.2018 01:00:00 8,2 0,7 25 14 39 21 NW 1009,8 10 0,0
25.02.2018 00:00:00 7,9 0,4 27 15 38 20 NW 1009,7 - 0,0
24.02.2018 23:00:00 8,2 0,4 30 16 40 21 NW 1009,8 - 0,0
24.02.2018 22:00:00 7,5 1,1 9 5 20 11 NNW 1009,8 - 0,0
24.02.2018 21:00:00 7,7 -1,0 13 7 21 11 W 1009,5 - 0,0
24.02.2018 20:00:00 7,0 -0,5 14 8 17 9 NW 1009,8 - 0,0
24.02.2018 19:00:00 7,0 -0,7 10 5 15 8 WNW 1009,5 - 0,0
24.02.2018 18:00:00 7,3 0,0 9 5 19 10 NNW 1009,2 - 0,0
24.02.2018 17:00:00 7,9 0,8 16 8 21 12 NNE 1008,9 - 0,0
24.02.2018 16:00:00 7,9 0,6 8 4 15 8 N 1009,1 - 0,0
24.02.2018 15:00:00 8,2 0,2 11 6 14 8 N 1008,5 - 0,0
24.02.2018 14:00:00 7,7 0,6 9 5 14 8 N 1008,7 - 0,0
24.02.2018 13:00:00 7,3 -0,4 10 5 18 10 N 1008,9 10 0,0
24.02.2018 12:00:00 6,9 -1,0 13 7 23 12 NNW 1009,2 - 0,0
24.02.2018 11:00:00 6,0 -1,9 21 11 27 15 NW 1008,9 - 0,0
24.02.2018 10:00:00 5,2 0,0 20 11 31 17 NNW 1008,9 10 0,0
24.02.2018 09:00:00 4,8 -2,3 21 11 32 17 NW 1008,5 - 0,0
24.02.2018 08:00:00 3,8 -2,6 27 14 32 18 NW 1008,4 - 0,0
24.02.2018 07:00:00 3,7 -2,5 25 13 29 16 NW 1007,9 - 0,0
24.02.2018 06:00:00 3,7 -2,1 24 13 32 17 NW 1007,8 - 0,0
24.02.2018 05:00:00 3,6 -2,4 24 13 33 18 NW 1007,8 - 0,0
24.02.2018 04:00:00 3,7 -2,3 27 15 39 21 NW 1007,8 20 0,0
24.02.2018 03:00:00 4,4 -1,6 26 14 46 25 NW 1008,2 - 0,0
24.02.2018 02:00:00 3,8 -2,6 32 17 42 23 NW 1008,1 - 0,0
24.02.2018 01:00:00 4,1 -2,3 26 14 45 24 NW 1008,1 - 0,0
24.02.2018 00:00:00 4,8 -1,9 32 18 44 24 NW 1008,2 - 0,0
23.02.2018 23:00:00 4,8 -2,8 32 17 40 22 WNW 1008,0 - 0,0
23.02.2018 22:00:00 5,2 -2,9 27 15 37 20 WNW 1008,2 - 0,0
23.02.2018 21:00:00 5,5 -2,8 30 16 40 22 NW 1007,9 - 0,0
23.02.2018 20:00:00 6,2 -2,7 29 16 46 25 NW 1007,6 - 0,0
23.02.2018 19:00:00 6,6 -2,6 31 17 48 26 NW 1007,2 - 0,0
23.02.2018 18:00:00 7,6 0,1 35 19 45 24 NNW 1006,4 - 0,0
23.02.2018 17:00:00 8,1 -0,9 39 21 46 25 N 1005,8 - 0,0
23.02.2018 16:00:00 8,7 -0,4 37 20 50 27 N 1005,8 15 0,0
23.02.2018 15:00:00 8,5 -0,8 45 24 54 29 N 1006,0 - 0,0
23.02.2018 14:00:00 9,7 -0,8 40 21 46 25 N 1006,1 - 0,0
23.02.2018 13:00:00 8,5 -1,6 37 20 48 26 N 1006,8 15 0,0
23.02.2018 12:00:00 7,7 -1,5 35 19 53 29 N 1007,5 - 0,0
23.02.2018 11:00:00 6,2 -2,9 45 24 56 30 NNW 1007,4 - 0,0
23.02.2018 10:00:00 4,9 -4,1 41 22 58 31 NW 1007,4 - 0,0
23.02.2018 09:00:00 4,1 -3,9 47 25 56 30 NW 1007,3 - 0,0
23.02.2018 08:00:00 3,7 -3,4 49 26 65 35 NW 1007,1 - 0,0
23.02.2018 07:00:00 3,6 -3,2 48 26 59 32 NW 1006,8 20 0,0
23.02.2018 06:00:00 4,0 -2,0 46 25 55 30 NW 1006,9 - 0,0
23.02.2018 05:00:00 3,3 -3,7 41 22 55 30 NW 1006,8 - 0,0
23.02.2018 04:00:00 3,9 -2,7 46 25 57 31 NNW 1007,1 20 0,0
23.02.2018 03:00:00 4,7 -0,5 52 28 68 37 NNW 1007,4 - 0,0
23.02.2018 02:00:00 5,1 -1,4 58 31 64 35 NNW 1006,8 - 0,0
23.02.2018 01:00:00 5,0 -1,5 48 26 57 31 NNW 1007,7 - 0,0
23.02.2018 00:00:00 4,9 -1,3 45 24 64 35 NW 1008,2 - 0,0
22.02.2018 23:00:00 4,9 -2,0 45 24 74 40 NW 1008,2 - 0,0
22.02.2018 22:00:00 4,5 -2,4 44 24 74 40 NW 1008,0 - 0,0
22.02.2018 21:00:00 4,3 -2,6 51 28 79 42 NW 1007,8 - 0,0
22.02.2018 20:00:00 3,9 -2,9 53 29 78 42 NW 1007,3 - 0,0
22.02.2018 19:00:00 4,1 -3,0 50 27 85 46 NW 1007,6 - 0,0
22.02.2018 18:00:00 5,5 -1,7 72 39 89 48 NNW 1005,9 - 0,0
22.02.2018 17:00:00 5,6 -1,6 70 38 101 55 N 1005,7 - 0,0
22.02.2018 16:00:00 5,6 -0,5 87 47 106 57 NNW 1004,6 - 0,0
22.02.2018 15:00:00 5,9 -0,6 78 42 95 51 N 1004,5 - 0,0
22.02.2018 14:00:00 6,1 -1,1 80 43 103 55 N 1004,7 - 0,0
22.02.2018 13:00:00 6,3 -0,2 77 41 93 50 N 1005,2 10 0,0
22.02.2018 12:00:00 6,2 -0,3 81 44 97 52 NNW 1005,8 - 0,0
22.02.2018 11:00:00 6,2 -0,3 72 39 95 51 NNW 1006,1 - 0,0
22.02.2018 10:00:00 5,6 -1,3 83 45 94 51 NNW 1005,8 - 0,0
22.02.2018 09:00:00 5,1 -1,4 66 36 90 48 NNW 1006,8 - 0,0
22.02.2018 08:00:00 4,7 -2,2 71 39 92 50 NNW 1006,6 - 0,0
22.02.2018 07:00:00 4,3 -2,3 62 34 80 43 NNW 1006,4 20 0,0
22.02.2018 06:00:00 4,5 -2,6 65 35 79 42 NNW 1006,6 - 0,0
22.02.2018 05:00:00 4,6 -1,8 60 33 77 41 NNW 1007,1 - 0,0
22.02.2018 04:00:00 4,6 -1,6 59 32 80 43 NNW 1007,3 - 0,0
22.02.2018 03:00:00 5,3 -0,5 67 36 82 44 NNW 1007,4 - 0,0
22.02.2018 02:00:00 5,5 -1,9 74 40 91 49 N 1007,5 - 0,0
22.02.2018 01:00:00 6,0 -0,7 81 44 95 51 N 1007,0 - 0,0
22.02.2018 00:00:00 6,5 0,2 75 40 89 48 NNW 1006,9 - 0,0
21.02.2018 23:00:00 6,5 -0,5 75 41 93 50 NNW 1008,0 - 0,0
21.02.2018 22:00:00 6,6 -0,2 78 42 98 53 NW 1008,3 - 0,0
21.02.2018 21:00:00 6,6 -1,1 69 38 87 47 NNW 1008,6 - 0,0
21.02.2018 20:00:00 6,8 -1,6 66 36 81 44 NNW 1009,0 - 0,0
21.02.2018 19:00:00 7,3 -0,4 72 39 95 51 NNW 1008,7 20 0,0
21.02.2018 18:00:00 7,6 -0,6 83 45 97 53 NNW 1007,3 - 0,0
21.02.2018 17:00:00 7,9 0,1 79 43 95 51 NNW 1007,2 - 0,0
21.02.2018 16:00:00 8,4 -0,6 72 39 85 46 NNW 1007,7 20 0,0
21.02.2018 15:00:00 8,8 0,0 59 32 75 41 NNW 1007,9 - 0,0
21.02.2018 14:00:00 9,5 0,4 42 23 61 33 NNE 1009,4 - 0,0
21.02.2018 13:00:00 8,4 -0,6 50 27 69 37 NNE 1010,1 20 0,0
21.02.2018 12:00:00 7,9 -1,9 59 32 79 43 NNE 1009,3 - 0,0
21.02.2018 11:00:00 8,1 -1,2 67 36 83 45 NNW 1008,3 - 0,0
21.02.2018 10:00:00 8,1 -0,4 54 29 65 35 NNW 1008,7 20 0,0
21.02.2018 09:00:00 8,3 0,7 53 28 69 38 NNW 1008,2 - 0,0
21.02.2018 08:00:00 8,4 2,6 52 28 63 34 NNW 1007,6 - 0,0
21.02.2018 07:00:00 8,6 3,8 53 29 62 34 NNW 1007,5 20 0,0
21.02.2018 06:00:00 8,9 4,3 53 29 69 38 NNW 1007,9 - 0,0
21.02.2018 05:00:00 9,3 4,7 55 30 68 37 NNW 1008,0 - 0,0
21.02.2018 04:00:00 9,2 5,0 61 33 75 41 N 1007,8 20 0,0
21.02.2018 03:00:00 9,6 5,6 63 34 77 41 N 1008,3 - 0,0
21.02.2018 02:00:00 10,0 6,0 62 34 82 44 NNW 1008,8 - 0,0
21.02.2018 01:00:00 10,1 5,7 67 36 94 51 NNW 1008,6 - 0,0
21.02.2018 00:00:00 10,2 6,0 83 45 105 57 NNW 1008,0 - 0,0
20.02.2018 23:00:00 10,7 6,1 85 46 106 57 NNW 1008,3 - 0,0
20.02.2018 22:00:00 11,1 7,4 82 44 96 52 NNW 1009,1 - 0,0
20.02.2018 21:00:00 11,5 7,4 88 48 99 54 NNW 1008,2 - 0,0
20.02.2018 20:00:00 11,5 7,2 50 27 81 44 NNW 1009,6 - 0,0
20.02.2018 19:00:00 11,4 6,7 62 33 101 55 NW 1009,3 - 0,0
20.02.2018 18:00:00 12,0 6,7 84 46 112 61 NW 1008,4 - 0,0
20.02.2018 17:00:00 12,3 6,8 90 48 112 61 NW 1008,0 - 0,0
20.02.2018 16:00:00 12,0 7,1 74 40 101 55 NNW 1008,3 20 0,0
20.02.2018 15:00:00 11,3 7,4 72 39 91 49 NW 1008,6 - 0,6
20.02.2018 14:00:00 10,9 7,8 66 36 100 54 NW 1009,2 - 0,6
20.02.2018 13:00:00 12,0 8,5 63 34 80 43 NW 1009,4 16 0,2
20.02.2018 12:00:00 11,7 8,5 55 30 75 41 NW 1010,3 16 0,2
20.02.2018 11:00:00 11,8 7,9 64 35 91 49 NW 1010,1 - 0,0
20.02.2018 10:00:00 11,3 8,0 68 37 85 46 NNW 1009,7 16 0,0
20.02.2018 09:00:00 10,6 7,5 66 35 79 42 NW 1010,0 - 0,2
20.02.2018 08:00:00 9,4 8,0 43 23 53 29 NW 1011,3 - 0,8
20.02.2018 07:00:00 9,1 7,7 40 22 48 26 NW 1011,7 15 0,8
20.02.2018 06:00:00 9,1 7,5 27 15 36 20 NNW 1012,3 - 0,6
20.02.2018 05:00:00 9,0 7,1 31 17 34 18 NNW 1012,5 20 0,0
20.02.2018 04:00:00 9,1 6,7 34 18 48 26 NNW 1012,7 - 0,0
20.02.2018 03:00:00 9,3 6,6 37 20 52 28 NW 1013,1 - 0,2
20.02.2018 02:00:00 9,5 6,9 31 17 59 32 NW 1013,6 - 0,0
20.02.2018 01:00:00 10,3 5,9 49 26 56 31 NW 1013,9 - 0,0
20.02.2018 00:00:00 10,5 5,5 37 20 64 34 NW 1014,1 - 0,0
19.02.2018 23:00:00 10,8 5,5 47 25 67 36 WNW 1013,7 - 0,0
19.02.2018 22:00:00 10,9 5,6 29 16 52 28 NW 1014,5 - 0,0
19.02.2018 21:00:00 11,2 5,5 41 22 62 33 NW 1014,7 - 0,0
19.02.2018 20:00:00 11,6 5,9 31 17 49 27 NW 1014,8 - 0,0
19.02.2018 19:00:00 11,5 6,8 28 15 44 24 NW 1015,1 20 0,0
19.02.2018 18:00:00 10,4 6,0 14 7 21 11 NNW 1015,2 - 0,0
19.02.2018 17:00:00 9,9 5,7 0 0 10 5 N 1015,5 - 0,0
19.02.2018 16:00:00 10,4 5,8 6 3 11 6 SSE 1015,6 20 0,0
19.02.2018 15:00:00 11,5 6,2 7 4 13 7 NE 1016,0 - 0,0
19.02.2018 14:00:00 10,5 5,7 9 5 12 7 NNE 1016,6 - 0,0
19.02.2018 13:00:00 9,9 5,3 8 4 10 5 NNE 1017,5 20 0,0
19.02.2018 12:00:00 9,2 4,8 5 3 15 8 NNW 1018,3 - 0,0
19.02.2018 11:00:00 8,9 4,9 13 7 27 14 NNW 1018,4 - 0,0
19.02.2018 10:00:00 8,8 5,0 18 10 31 17 N 1018,5 20 0,0

tt = Température de l'air
td = dewpoint
ff = Vitesse du vent
fx = gusts
dd = Direction du vent
ppp = reduced air pressure
vv = visibility
rr = Quantités de précipitations

stations d'obs. à proximité